Location: Unspecified
(50.7693°N, 0.0000°E)
Time: 03:30:09
(UTC+00:00)

deb Explorer IX - Pass Details

Date: 25 June 2019
Orbit: 539 x 1112 km, 38.8° (Epoch: 17 July)

Event Time Altitude Azimuth Distance (km) Brightness Sun altitude
Rises 13:59:22 0° 241° (WSW) 3,776 ? 54.5°
Reaches altitude 10° 14:02:19 10° 231° (SW) 2,883 ? 54.2°
Maximum altitude 14:08:24 31° 173° (S) 1,835 ? 53.4°
Drops below altitude 10° 14:14:39 10° 115° (ESE) 2,968 ? 52.6°
Sets 14:17:43 0° 106° (ESE) 3,902 ? 52.2°
